Weather History for KIWI - March, 2013

Change the Weather History Date:

Tuesday, March 26, 2013

  Actual Average Record
Temperature  
Mean Temperature 40 °F -  
Max Temperature 48 °F 42 °F - (-1)
Min Temperature 32 °F 25 °F - (-1)
Degree Days  
Heating Degree Days 25    
Moisture  
Dew Point 21 °F    
Average Humidity 49    
Maximum Humidity 69    
Minimum Humidity 32    
Precipitation  
Precipitation 0.00 in - - ()
Sea Level Pressure  
Sea Level Pressure 29.63 in    
Wind  
Wind Speed 4 mph (WNW)    
Max Wind Speed 10 mph    
Max Gust Speed 20 mph    
Visibility 10 miles    
Events      
Averages and records for this station are not official NWS values.
T = Trace of Precipitation, MM = Missing Value Source: NWS Daily Summary

Daily Weather History Graph

Daily Weather History Graph

Search for Another Location

Airport or City:

Trip Planner

Search our weather history database for the weather conditions in past years. The results will help you decide how hot, cold, wet, or windy it might be!

Date:

Astronomy

Mar. 26, 2013 Rise Set
Actual Time 6:30 AM EDT 6:58 PM EDT
Civil Twilight 6:01 AM EDT 7:27 PM EDT
Nautical Twilight 5:27 AM EDT 8:01 PM EDT
Astronomical Twilight 4:52 AM EDT 8:37 PM EDT
Moon 6:32 PM EDT (3/26) 5:46 AM EDT (3/26)
Length of Visible Light 13h 25m
Length of Day
12h 28m
Waxing Gibbous, 99% of the Moon is Illuminated
Mar 26
Waxing Gibbous
Mar 27
Full
Apr 3
Last Quarter
Apr 10
New
Apr 18
First Quarter

Hourly Weather History & Observations

Time (EDT) Temp. Windchill Dew Point Humidity Pressure Visibility Wind Dir Wind Speed Gust Speed Precip Events Conditions
12:53 AM 37.0 °F 34.5 °F 24.1 °F 59% 29.59 in 10.0 mi Variable 3.5 mph - N/A   Overcast
1:53 AM 36.0 °F 32.1 °F 24.1 °F 62% 29.58 in 10.0 mi Variable 4.6 mph - N/A   Overcast
2:53 AM 34.0 °F - 23.0 °F 64% 29.57 in 10.0 mi Calm Calm - N/A   Clear
3:53 AM 33.1 °F 30.0 °F 23.0 °F 66% 29.57 in 10.0 mi Variable 3.5 mph - N/A   Clear
4:53 AM 33.1 °F 30.0 °F 21.9 °F 64% 29.57 in 10.0 mi Variable 3.5 mph - N/A   Clear
5:53 AM 33.1 °F 27.7 °F 21.0 °F 61% 29.58 in 10.0 mi Variable 5.8 mph - N/A   Clear
6:53 AM 32.0 °F 28.7 °F 21.0 °F 64% 29.60 in 10.0 mi Variable 3.5 mph - N/A   Clear
7:53 AM 35.1 °F 31.0 °F 21.0 °F 57% 29.61 in 10.0 mi Variable 4.6 mph - N/A   Clear
8:53 AM 37.9 °F 33.5 °F 21.0 °F 51% 29.62 in 10.0 mi Variable 5.8 mph - N/A   Clear
9:53 AM 41.0 °F 36.4 °F 21.0 °F 45% 29.61 in 10.0 mi Variable 6.9 mph - N/A   Clear
10:53 AM 42.1 °F 38.4 °F 19.9 °F 41% 29.62 in 10.0 mi Variable 5.8 mph - N/A   Scattered Clouds
11:53 AM 45.0 °F 42.6 °F 19.9 °F 37% 29.62 in 10.0 mi Variable 4.6 mph - N/A   Partly Cloudy
12:53 PM 46.0 °F 41.4 °F 19.0 °F 34% 29.62 in 10.0 mi NW 9.2 mph 18.4 mph N/A   Clear
1:53 PM 48.0 °F - 19.0 °F 32% 29.62 in 10.0 mi Variable 6.9 mph - N/A   Overcast
2:53 PM 48.0 °F - 19.9 °F 33% 29.62 in 10.0 mi WNW 10.4 mph 19.6 mph N/A   Overcast
3:53 PM 48.9 °F - 21.9 °F 35% 29.62 in 10.0 mi Variable 6.9 mph - N/A   Overcast
4:53 PM 46.9 °F - 21.0 °F 36% 29.64 in 10.0 mi Variable 3.5 mph - N/A   Overcast
5:53 PM 48.0 °F - 19.9 °F 33% 29.65 in 10.0 mi Variable 4.6 mph - N/A   Mostly Cloudy
6:53 PM 45.0 °F 42.6 °F 19.9 °F 37% 29.68 in 10.0 mi Variable 4.6 mph - N/A   Mostly Cloudy
7:53 PM 44.1 °F 42.5 °F 21.0 °F 40% 29.71 in 10.0 mi NW 3.5 mph - N/A   Overcast
8:53 PM 41.0 °F 39.0 °F 23.0 °F 49% 29.72 in 10.0 mi West 3.5 mph - N/A   Overcast
9:53 PM 39.0 °F 36.8 °F 23.0 °F 53% 29.73 in 10.0 mi West 3.5 mph - N/A   Clear
10:53 PM 36.0 °F 33.3 °F 23.0 °F 59% 29.73 in 10.0 mi West 3.5 mph - N/A   Clear
11:53 PM 32.0 °F - 23.0 °F 69% 29.73 in 10.0 mi Calm Calm - N/A   Clear